Temperature
9 9 9 8 8 7 7 7 7 6 6 6 5 5 5 5 5 5 5 5 5 4 4 4 4 3 3 3 2 2 2 1 1 1 1 1 1 1 1 2 2 2 2
8 8 7 7 7 7 6 6 6 6 5 5 5 5 5 5 5 5 5 4 4 4 4 3 3 3 2 2 2 1 1 1 0 0 0 0 1 1 1 1 2 2 2
7 7 6 6 6 6 6 5 5 5 5 5 5 5 5 5 5 4 4 4 4 3 3 2 2 2 2 1 1 1 1 0 0 -0 -0 0 0 1 1 1 2 2 2
7 6 6 6 5 5 5 5 5 5 5 5 5 5 4 4 4 4 4 3 3 3 2 2 1 1 1 1 1 1 0 0 0 -0 -0 0 0 1 1 1 1 2 2
6 5 5 5 5 5 5 5 5 5 5 4 4 4 4 3 3 3 2 2 2 1 1 1 0 1 1 1 0 0 0 0 0 0 0 0 0 0 1 1 1 1 2
5 5 5 5 5 5 5 5 4 4 4 4 4 3 2 2 2 1 1 1 1 0 0 0 0 0 0 0 0 0 0 0 0 0 0 0 0 0 0 1 1 1 1
4 4 4 4 4 4 4 4 4 4 3 3 2 2 1 1 0 0 0 0 0 -0 0 0 0 0 0 0 0 0 0 0 0 0 0 0 0 0 1 1 1 1 1
4 4 4 4 4 4 4 3 3 3 2 2 2 1 1 0 0 0 -0 0 -0 0 0 0 0 0 0 0 0 0 1 1 1 1 0 0 1 1 1 1 1 1 1
4 4 4 4 4 3 3 3 2 2 2 1 1 1 0 0 0 -0 -0 -0 -0 -0 0 0 0 0 0 0 0 0 1 1 1 1 1 1 1 1 1 1 1 1 1
4 4 4 3 3 3 2 2 1 1 1 1 0 0 0 0 0 -0 -0 -0 -0 -0 -0 0 0 0 0 0 0 0 0 1 1 1 1 1 1 1 1 1 1 1 1
4 3 3 3 3 2 1 1 1 1 1 0 0 0 0 0 -0 -0 -0 -0 -0 -0 -0 0 0 0 0 0 0 0 0 1 1 1 1 0 0 0 0 0 0 0 1
3 3 2 2 2 1 1 1 1 0 0 -0 -0 -0 -0 -0 -0 -0 0 -0 -0 -0 0 0 0 0 0 0 0 0 0 0 0 0 0 0 0 -0 -0 -0 -0 -0 0
3 2 2 2 2 1 1 1 0 0 -0 -1 -1 -1 -1 -1 -0 -0 -0 -0 -0 0 0 0 0 0 0 0 0 0 0 0 0 0 0 -0 -0 -0 -0 -0 -0 -0 -0
3 3 3 2 2 1 1 1 0 -0 -1 -1 -1 -1 -1 -1 -1 -1 -0 -0 -0 0 0 0 0 0 0 0 0 0 0 -0 -0 -0 -0 -0 -0 -0 -0 -0 -0 -0 -0
3 3 3 2 2 1 1 0 -0 -1 -1 -1 -1 -1 -1 -1 -1 -1 -1 -1 -0 -0 0 0 0 0 0 0 0 0 0 -0 -0 -0 -0 -0 -0 -0 -0 -0 -0 -0 -0
3 3 3 3 2 2 1 0 -0 -1 -1 -1 -1 -2 -1 -1 -1 -1 -1 -1 -0 -0 0 0 0 0 0 0 0 0 0 0 0 -0 -0 -0 -0 -0 -0 -0 -0 -0 -0
3 3 3 3 2 2 1 0 -0 -1 -1 -1 -1 -2 -1 -1 -1 -1 -1 -1 -1 -0 -0 -0 -0 -0 -0 -0 0 0 0 0 0 0 0 -0 -0 -0 -1 -1 -1 -1 -1
3 3 3 3 2 2 1 0 -0 -1 -1 -1 -1 -2 -1 -1 -1 -1 -1 -1 -1 -1 -0 -0 -0 -0 -0 0 0 0 0 0 0 0 0 0 -0 -0 -1 -1 -1 -1 -1
3 3 3 3 2 2 1 0 -0 -1 -1 -1 -1 -1 -1 -1 -1 -1 -1 -1 -1 -1 -1 -1 -0 -0 -0 -0 0 0 0 0 1 1 0 0 0 -0 -0 -1 -1 -1 -1
3 3 3 3 2 2 1 0 -0 -1 -1 -1 -1 -1 -1 -1 -1 -1 -1 -1 -1 -1 -1 -1 -1 -0 -0 -0 0 0 0 1 1 1 1 1 1 1 0 0 -0 -0 -1
4 4 3 3 2 2 1 0 -0 -1 -1 -1 -1 -2 -2 -1 -2 -2 -1 -1 -1 -1 -1 -1 -1 -0 -0 -0 0 0 0 1 1 1 1 1 2 1 1 1 1 0 0
4 4 3 3 2 2 1 1 0 -0 -1 -1 -1 -1 -1 -1 -1 -1 -1 -1 -1 -1 -1 -1 -1 -1 -0 -0 0 0 0 1 1 1 2 2 2 2 2 2 2 1 1
4 4 4 3 2 2 1 1 0 -0 -1 -1 -1 -1 -1 -1 -1 -1 -1 -1 -1 -1 -1 -1 -1 -0 -0 -0 -0 0 0 1 1 1 2 2 2 2 2 2 2 2 2
4 4 3 3 2 2 1 1 0 0 -0 -1 -1 -1 -1 -1 -1 -1 -1 -1 -1 -1 -1 -1 -0 -0 -0 -0 0 0 1 1 1 2 2 2 2 3 3 3 3 3 2
4 4 3 2 2 2 1 1 0 -0 -0 -1 -1 -1 -1 -1 -1 -1 -1 -1 -1 -1 -1 -0 -0 -0 -0 -0 0 1 1 1 1 2 2 2 2 3 3 3 3 3 3
4 3 3 2 2 1 1 1 0 -0 -0 -1 -1 -1 -1 -1 -1 -1 -1 -1 -1 -0 -0 -0 -0 -0 -0 0 0 1 1 1 2 2 2 2 3 3 3 3 3 3 3
Wind_Speed
6 5 6 5 4 3 4 5 4 3 1 2 2 3 4 5 5 5 6 7 7 7 7 8 8 7 6 6 6 6 7 9 14 14 11 10 12 13 13 16 20 18 19
7 7 6 5 4 3 4 4 2 1 2 3 4 4 5 6 5 6 7 7 7 7 8 8 9 9 8 7 6 8 8 9 12 16 13 11 12 13 13 13 13 17 15
7 7 6 4 4 5 4 4 3 2 3 4 5 6 6 6 6 6 7 8 8 9 9 10 10 9 9 8 8 9 9 10 10 12 13 11 11 12 12 14 14 11 14
8 7 6 5 5 3 3 2 3 4 4 5 5 6 6 7 10 11 11 10 10 10 10 11 11 10 10 10 9 9 9 10 10 11 12 11 11 11 11 11 11 9 10
7 6 5 3 1 1 2 3 3 4 5 5 6 7 7 7 9 10 10 11 11 11 11 11 12 14 16 13 12 10 10 10 10 11 12 12 11 10 10 9 11 10 11
6 4 2 1 1 1 2 3 4 4 5 6 6 7 8 6 6 9 10 10 11 11 12 11 12 14 15 16 19 19 17 14 12 12 12 13 13 12 10 10 10 11 8
2 1 0 1 1 2 3 4 5 5 6 6 6 6 5 3 2 5 9 10 11 10 11 11 13 14 14 12 15 18 18 19 19 15 14 14 13 11 11 12 11 11 10
1 0 0 1 2 4 5 6 6 6 6 6 5 6 5 2 2 5 11 11 10 10 11 12 12 13 14 13 14 14 14 13 14 11 10 11 11 10 10 11 12 10 8
2 1 2 4 5 7 8 7 7 6 6 6 6 6 6 3 3 6 9 10 10 12 13 13 13 13 14 16 14 13 12 10 10 10 10 11 12 13 12 8 7 6 5
4 5 7 7 7 8 7 7 6 5 5 6 6 6 7 6 4 6 10 10 11 12 12 12 12 12 14 15 11 10 10 9 8 7 6 7 7 7 8 6 5 5 3
6 7 7 5 5 7 5 4 5 6 5 6 7 7 7 8 7 9 12 10 10 11 10 9 9 13 14 14 12 8 9 9 6 5 5 5 5 4 5 6 6 4 3
7 7 7 6 7 6 4 4 5 6 6 6 7 8 7 8 9 12 15 15 13 11 9 8 9 14 15 14 9 9 11 8 4 4 4 4 4 4 5 5 6 6 5
6 6 5 5 5 5 5 6 5 6 6 7 7 8 9 9 10 14 16 16 16 10 8 12 13 14 12 9 9 10 8 5 5 5 5 5 4 5 4 4 4 4 5
5 3 4 5 5 4 4 6 6 7 8 7 8 8 8 9 10 11 11 11 12 11 9 10 11 11 8 8 7 7 5 5 5 5 5 5 5 5 5 4 4 4 3
4 3 4 5 5 4 5 5 6 6 6 6 7 7 7 8 11 15 11 9 9 10 9 6 6 7 8 7 6 6 6 6 6 5 5 5 5 5 4 5 5 5 5
5 5 5 5 5 4 4 4 5 4 4 1 3 6 7 9 13 16 17 16 15 15 9 7 7 7 7 8 7 7 6 6 5 5 5 5 5 5 5 5 6 7 8
7 6 5 6 5 5 5 4 3 2 4 2 3 9 12 12 13 16 18 16 13 14 8 8 8 8 8 7 7 7 6 6 6 5 5 5 5 5 5 6 7 8 9
6 6 6 5 6 6 6 6 5 5 5 4 4 9 14 13 12 15 16 13 10 10 9 8 8 8 8 7 7 7 6 6 6 6 5 5 5 6 7 7 8 9 9
7 6 5 5 5 6 6 6 6 7 7 7 7 9 12 12 11 13 13 9 8 9 9 8 8 8 8 8 7 7 7 7 7 6 6 5 5 5 6 7 8 10 10
4 2 4 5 7 7 7 7 7 6 6 6 7 8 9 9 9 10 9 8 8 8 9 9 8 8 8 8 8 7 7 7 8 7 6 5 3 4 6 7 7 7 8
3 3 2 7 8 7 7 7 6 6 6 5 6 7 9 7 7 8 8 8 8 8 8 8 8 8 8 8 8 9 9 8 8 8 7 6 4 4 4 5 6 7 7
5 6 7 7 7 7 7 7 6 6 6 7 6 7 8 7 7 7 7 8 8 7 7 7 7 7 7 7 8 8 9 9 10 10 8 7 5 5 4 5 5 6 7
5 7 7 7 7 7 7 8 7 7 7 7 7 7 7 7 7 7 7 7 7 7 8 8 7 7 9 9 9 7 8 9 9 10 9 7 5 5 5 7 8 8 8
8 8 8 8 8 8 8 8 8 8 8 8 8 7 6 6 6 7 7 7 6 7 9 9 8 9 12 11 11 11 11 12 13 11 10 7 6 5 6 6 7 9 9
9 9 9 8 8 8 8 8 8 8 8 8 8 8 7 7 7 7 7 6 7 7 9 10 11 11 13 14 14 14 17 19 18 15 10 6 7 7 7 7 7 8 8
9 9 8 8 8 8 7 8 8 8 8 8 8 8 8 8 8 8 7 7 7 7 8 10 12 14 15 15 17 19 20 20 20 18 11 6 7 6 6 6 8 8 8
Wind_Direction
113 99 98 100 103 112 97 98 92 78 75 273 286 284 282 279 273 268 271 278 281 284 288 291 288 286 282 281 280 281 283 286 288 291 291 292 292 292 291 289 287 280 276
102 91 85 78 71 69 78 73 71 59 322 313 310 303 296 297 298 295 300 308 310 310 309 305 300 299 294 290 283 283 282 279 282 287 289 290 288 288 286 284 287 283 277
101 93 83 75 67 54 54 44 17 348 317 312 309 307 313 320 328 344 350 345 341 332 324 315 309 304 297 293 287 282 279 278 274 279 285 287 286 286 288 288 285 284 285
85 85 75 62 53 43 28 2 334 322 311 311 320 331 342 8 30 21 5 348 340 331 320 311 303 298 296 293 288 279 278 276 276 277 281 284 285 284 283 287 291 290 289
76 75 70 58 43 19 355 330 325 331 340 356 357 1 7 36 38 20 356 341 332 318 309 302 299 299 295 290 287 282 281 280 280 279 281 284 284 287 287 290 291 292 287
71 67 61 7 351 335 324 342 3 12 14 14 14 15 15 30 46 19 354 333 318 308 305 304 303 297 299 299 294 291 286 282 280 279 281 282 284 286 289 289 289 289 285
74 57 352 282 320 5 21 40 34 24 24 16 14 20 21 64 58 343 331 319 308 307 310 310 311 311 312 307 305 303 296 287 280 278 278 280 284 288 290 289 285 281 277
102 92 7 33 44 61 55 44 36 22 16 6 18 12 358 14 215 298 318 315 315 316 314 311 312 312 313 315 309 300 292 288 284 282 278 281 284 287 288 285 284 281 272
138 88 52 48 56 51 45 32 28 15 15 6 15 359 345 343 243 309 328 325 322 321 317 317 316 314 316 319 312 303 298 295 292 283 277 281 284 289 293 294 292 290 284
85 70 61 56 58 58 48 32 14 11 16 5 5 350 344 353 12 0 345 335 330 325 319 317 317 322 322 323 320 312 311 311 313 317 311 305 303 309 323 326 324 313 302
80 75 65 46 68 78 61 38 15 11 13 10 1 352 355 359 11 12 349 344 333 322 319 322 324 328 327 326 326 324 321 317 316 319 322 327 331 340 351 1 1 354 342
80 77 68 48 43 58 54 43 31 13 13 12 3 358 358 359 7 357 343 334 329 325 322 324 326 326 326 326 329 331 330 330 331 336 342 349 355 0 4 10 14 19 18
89 85 83 80 72 46 36 38 31 26 19 14 9 360 355 354 356 352 339 332 332 334 328 329 329 327 328 329 336 339 344 354 358 1 4 7 5 3 3 1 5 14 27
87 93 103 88 77 68 45 39 39 29 21 15 10 357 351 351 355 349 340 337 339 341 336 331 330 336 342 340 346 358 5 14 13 13 14 11 7 12 16 8 9 5 21
78 68 78 75 63 69 69 50 50 61 47 23 9 352 350 352 343 335 341 345 345 340 334 340 355 357 2 3 5 10 14 16 19 18 17 13 11 14 17 12 17 19 30
51 43 54 57 54 53 76 97 77 97 145 95 3 355 357 352 341 347 350 348 350 349 357 1 1 1 2 3 5 9 15 15 13 14 15 16 15 20 30 32 35 37 39
50 35 34 42 46 47 46 55 69 144 205 215 3 6 4 359 360 357 353 350 2 4 10 5 4 2 360 0 2 7 14 14 13 15 17 18 21 32 43 46 46 51 53
49 45 24 40 48 51 48 46 43 39 37 26 19 17 6 4 9 4 357 0 9 9 5 2 1 359 357 1 5 8 12 13 13 14 16 20 32 48 54 57 58 62 64
45 34 15 32 48 58 57 53 48 43 38 25 18 13 5 1 9 10 7 12 4 2 360 358 359 359 359 2 4 8 14 14 10 9 10 16 37 59 67 70 73 73 74
111 48 359 36 45 55 59 54 50 47 42 32 26 13 1 7 11 7 6 4 3 0 357 355 358 2 2 3 4 11 14 11 8 6 1 8 37 72 79 81 81 81 83
77 105 97 54 48 46 55 58 57 50 45 41 38 27 10 13 9 3 2 1 359 356 354 354 359 2 4 4 6 11 13 11 5 359 358 6 31 67 88 98 99 97 98
22 55 56 60 63 49 52 60 58 53 46 46 45 42 28 20 12 5 0 357 355 353 352 353 358 0 2 5 7 10 11 8 360 355 357 7 27 47 62 80 95 100 100
40 55 57 56 64 70 58 55 50 48 47 46 47 43 33 21 10 5 0 357 355 355 356 358 360 3 4 4 8 14 10 358 347 346 352 4 25 38 47 58 68 76 81
50 53 55 53 54 55 54 53 49 47 48 48 46 46 41 29 16 9 5 1 358 359 2 4 3 2 5 12 13 14 6 355 348 345 346 4 28 46 51 59 69 79 79
50 52 57 54 49 53 54 53 51 48 46 45 44 43 42 36 27 18 11 8 5 5 7 10 10 8 7 14 15 7 0 2 3 359 355 8 33 42 49 55 61 70 81
51 53 59 61 55 51 51 53 52 50 47 45 44 42 41 37 31 25 18 13 9 7 10 12 15 20 14 9 6 6 7 6 5 5 12 28 38 37 42 54 67 70 80
Height
1497 1499 1501 1503 1505 1506 1507 1508 1509 1509 1509 1510 1510 1509 1508 1507 1506 1504 1502 1501 1499 1497 1495 1493 1491 1488 1486 1483 1481 1478 1475 1472 1465 1460 1459 1456 1453 1450 1446 1444 1441 1439 1437
1497 1499 1501 1503 1505 1506 1507 1508 1508 1509 1509 1509 1508 1507 1506 1504 1503 1501 1498 1497 1494 1492 1489 1487 1484 1482 1479 1476 1473 1470 1467 1464 1460 1454 1451 1449 1446 1443 1439 1436 1434 1432 1430
1497 1500 1502 1504 1505 1506 1507 1507 1508 1508 1508 1507 1507 1505 1503 1501 1499 1496 1494 1492 1489 1486 1483 1480 1478 1475 1472 1469 1466 1463 1460 1457 1454 1449 1444 1442 1439 1436 1433 1429 1426 1424 1422
1498 1500 1502 1504 1505 1506 1506 1507 1507 1506 1506 1505 1504 1502 1500 1497 1494 1492 1489 1486 1483 1480 1476 1474 1471 1468 1465 1462 1459 1456 1453 1450 1447 1443 1439 1435 1432 1429 1426 1422 1418 1416 1414
1498 1500 1502 1503 1504 1505 1505 1505 1505 1504 1503 1502 1500 1499 1497 1494 1490 1488 1485 1481 1477 1473 1470 1468 1465 1462 1459 1456 1453 1450 1447 1443 1440 1436 1432 1429 1426 1423 1420 1416 1412 1408 1405
1498 1500 1502 1503 1504 1504 1504 1503 1503 1501 1500 1499 1497 1495 1493 1490 1487 1484 1481 1477 1473 1469 1466 1463 1460 1457 1454 1450 1447 1444 1441 1437 1433 1430 1426 1422 1419 1416 1413 1409 1406 1402 1398
1499 1501 1502 1503 1503 1503 1502 1502 1501 1500 1498 1496 1495 1493 1490 1487 1485 1481 1478 1474 1470 1467 1463 1459 1455 1452 1448 1444 1440 1436 1433 1430 1427 1423 1419 1416 1413 1410 1406 1402 1399 1396 1392
1500 1501 1502 1503 1503 1502 1501 1500 1499 1498 1497 1495 1493 1491 1488 1486 1483 1479 1476 1472 1468 1464 1460 1455 1451 1446 1442 1438 1433 1429 1425 1422 1419 1416 1413 1410 1407 1404 1401 1397 1393 1390 1388
1501 1502 1502 1502 1502 1501 1500 1499 1498 1497 1496 1494 1492 1489 1487 1484 1481 1478 1474 1469 1465 1461 1456 1452 1447 1442 1438 1433 1428 1423 1419 1416 1414 1411 1409 1406 1403 1400 1396 1393 1390 1387 1384
1502 1502 1502 1502 1502 1501 1500 1499 1498 1497 1495 1493 1491 1488 1486 1483 1480 1476 1472 1467 1462 1457 1453 1448 1444 1439 1435 1430 1425 1421 1417 1414 1411 1408 1406 1403 1400 1397 1394 1391 1388 1385 1383
1503 1503 1502 1502 1502 1500 1500 1499 1498 1496 1494 1492 1490 1488 1485 1482 1479 1475 1471 1465 1461 1455 1451 1446 1442 1438 1433 1429 1424 1420 1417 1413 1410 1408 1405 1403 1400 1397 1394 1390 1387 1385 1382
1504 1504 1503 1503 1503 1502 1500 1499 1498 1496 1494 1492 1489 1487 1484 1481 1478 1473 1469 1465 1460 1455 1450 1445 1441 1437 1433 1429 1425 1421 1418 1414 1411 1408 1406 1403 1400 1397 1394 1391 1388 1385 1383
1505 1505 1504 1504 1503 1502 1501 1500 1498 1496 1494 1491 1489 1486 1483 1480 1476 1472 1468 1463 1459 1454 1450 1446 1442 1438 1434 1430 1427 1423 1419 1416 1413 1410 1407 1405 1402 1399 1396 1393 1390 1387 1384
1507 1507 1506 1505 1504 1503 1502 1500 1498 1496 1494 1491 1489 1486 1483 1479 1475 1471 1466 1462 1458 1454 1450 1447 1443 1439 1436 1432 1429 1425 1422 1418 1415 1413 1410 1407 1404 1401 1398 1396 1393 1390 1388
1509 1508 1507 1506 1505 1503 1502 1500 1499 1496 1494 1492 1489 1486 1483 1479 1476 1472 1467 1463 1459 1455 1451 1448 1445 1441 1437 1434 1431 1428 1425 1421 1419 1416 1413 1410 1407 1405 1402 1399 1397 1394 1392
1510 1509 1509 1508 1506 1504 1503 1501 1499 1497 1495 1492 1489 1486 1483 1481 1476 1472 1468 1464 1460 1457 1453 1450 1446 1443 1440 1437 1434 1431 1428 1425 1422 1419 1417 1414 1411 1408 1406 1403 1401 1399 1396
1512 1511 1510 1509 1507 1506 1504 1502 1500 1498 1496 1493 1490 1487 1484 1481 1477 1473 1469 1465 1462 1458 1455 1452 1449 1446 1443 1440 1438 1435 1432 1429 1426 1424 1421 1418 1415 1413 1410 1408 1406 1403 1401
1514 1513 1511 1510 1508 1507 1505 1503 1501 1499 1497 1495 1492 1488 1485 1481 1478 1474 1470 1467 1463 1460 1457 1454 1452 1449 1446 1444 1441 1439 1436 1434 1431 1428 1425 1423 1421 1418 1416 1413 1411 1409 1408
1515 1514 1513 1511 1510 1508 1506 1504 1502 1500 1498 1496 1493 1489 1486 1482 1479 1475 1471 1468 1465 1462 1460 1457 1454 1452 1450 1447 1445 1443 1441 1438 1435 1433 1430 1428 1426 1424 1422 1420 1418 1417 1415
1516 1515 1514 1513 1511 1509 1507 1505 1504 1501 1499 1497 1494 1490 1487 1483 1480 1477 1473 1470 1468 1465 1462 1460 1457 1455 1453 1451 1449 1447 1445 1442 1440 1438 1436 1434 1432 1431 1429 1427 1426 1424 1423
1518 1517 1515 1514 1513 1511 1509 1507 1505 1503 1501 1499 1496 1493 1489 1486 1482 1479 1476 1473 1470 1468 1465 1463 1460 1458 1456 1455 1453 1451 1449 1447 1445 1443 1441 1440 1439 1437 1436 1434 1433 1432 1431
1520 1518 1517 1515 1514 1512 1511 1509 1507 1505 1503 1501 1498 1495 1492 1489 1485 1482 1479 1476 1474 1471 1469 1466 1464 1462 1460 1459 1457 1455 1454 1452 1450 1448 1447 1446 1445 1443 1442 1441 1440 1439 1439
1521 1519 1518 1517 1515 1514 1513 1511 1509 1508 1506 1504 1501 1498 1495 1492 1489 1485 1482 1480 1477 1474 1472 1470 1467 1466 1464 1463 1462 1460 1458 1457 1455 1453 1452 1451 1450 1449 1448 1447 1447 1446 1446
1522 1521 1520 1519 1517 1516 1515 1513 1512 1510 1508 1506 1504 1501 1498 1495 1492 1489 1486 1483 1480 1478 1476 1473 1471 1470 1469 1467 1466 1465 1463 1462 1460 1458 1457 1456 1456 1455 1454 1454 1453 1453 1453
1524 1523 1522 1521 1519 1518 1517 1516 1514 1513 1511 1509 1507 1504 1502 1499 1496 1493 1490 1487 1484 1482 1480 1478 1476 1474 1473 1472 1471 1469 1468 1467 1465 1464 1462 1462 1461 1461 1460 1460 1459 1459 1459
1526 1525 1524 1523 1522 1520 1519 1518 1517 1515 1514 1512 1510 1507 1505 1502 1499 1497 1494 1491 1489 1487 1485 1483 1481 1480 1478 1477 1475 1474 1473 1471 1470 1469 1468 1467 1466 1466 1466 1466 1465 1465 1465